Temp
9 9 9 10 10 10 11 11 11 11 12 12 12 12 12 12 12 13 13 13 13 13 12 12 12 11 12 13 13 11 11 11 12 13 13 14 14 14 15 15 14 14 15 15 15 15 13
9 10 10 10 11 11 11 11 11 12 12 12 12 12 12 12 12 12 12 13 13 13 13 13 13 12 12 13 12 12 13 12 11 12 12 12 13 14 14 15 15 14 14 15 14 14 14
9 10 10 11 11 11 12 12 12 12 12 13 13 13 13 13 13 13 12 12 13 13 13 13 13 13 14 15 12 12 12 12 11 11 12 12 12 12 14 15 15 15 15 15 15 15 15
10 10 10 11 11 11 12 12 12 13 13 13 13 13 13 13 13 13 13 13 13 13 13 13 13 14 16 15 13 12 13 12 12 12 12 12 12 13 13 14 14 14 15 15 16 16 15
10 10 10 11 11 11 11 12 12 12 12 13 13 13 13 13 13 14 12 13 13 13 13 13 14 14 16 16 15 13 13 12 11 12 12 12 12 13 14 14 14 14 15 15 16 16 16
9 10 10 10 10 10 10 11 11 12 12 13 13 13 13 13 14 13 13 13 13 13 14 14 14 14 15 14 15 14 15 12 12 12 11 11 11 12 13 12 13 14 15 15 15 16 15
8 9 9 9 9 9 9 10 10 10 11 11 12 13 12 12 13 13 12 13 13 13 14 14 14 14 14 15 15 14 14 13 11 12 11 11 10 11 13 13 14 14 14 15 15 16 16
8 8 8 8 8 8 9 9 9 9 10 10 10 11 11 11 12 12 12 12 12 12 15 14 15 15 15 12 14 13 14 12 12 11 11 11 11 12 12 12 13 13 14 15 16 16 15
7 7 8 8 8 8 8 8 9 9 9 9 10 10 11 10 10 10 10 10 9 9 11 17 16 16 17 14 15 13 13 13 12 12 12 11 12 12 11 12 12 13 14 16 16 15 15
7 7 7 7 8 8 8 8 9 9 9 9 9 9 10 10 9 9 9 8 7 7 9 14 15 16 16 16 15 14 12 13 11 12 12 11 12 12 12 12 12 12 14 15 14 14 15
7 7 7 7 7 7 7 8 8 8 8 8 8 8 8 9 8 8 8 7 6 6 5 14 14 15 15 15 15 16 13 12 12 12 11 12 13 12 11 12 13 13 14 14 14 14 14
6 6 6 5 5 5 5 5 5 5 5 6 6 6 6 7 7 6 7 6 5 5 4 13 12 13 13 15 14 15 13 12 12 11 12 13 13 13 13 12 12 13 13 14 14 14 12
5 5 4 4 3 3 2 2 2 2 2 3 3 4 4 4 7 6 5 5 4 4 10 11 11 12 12 13 13 14 13 11 12 11 11 12 12 13 13 12 13 13 13 12 11 11 12
3 3 2 2 1 1 1 1 1 1 1 1 2 2 2 3 4 3 4 3 3 6 8 9 10 10 11 11 12 13 12 12 11 12 12 11 12 12 13 13 13 13 13 12 9 8 11
2 1 1 0 0 0 0 -0 -0 -0 -1 -0 -0 0 1 1 1 2 2 2 5 5 6 6 8 9 10 10 11 11 11 12 13 12 12 12 12 13 13 13 13 13 13 14 14 13 12
1 0 0 -0 -1 -1 -1 -1 -2 -2 -2 -2 -3 -2 -1 -2 -2 -1 -0 1 2 3 4 5 6 6 7 8 8 9 11 10 11 11 12 13 13 13 14 13 13 13 14 13 13 10 10
-0 -1 -1 -1 -1 -2 -2 -3 -3 -3 -3 -4 -4 -3 -4 -4 -4 -4 -3 -2 -0 2 2 2 3 3 4 4 3 4 8 7 9 11 10 11 12 13 13 13 14 13 13 13 14 14 12
-1 -1 -2 -3 -3 -3 -4 -4 -4 -4 -4 -4 -4 -4 -5 -5 -4 -4 -4 -4 -3 -2 0 -1 -0 0 0 1 1 2 4 4 6 6 8 9 10 11 12 14 15 14 14 13 14 14 14
-2 -2 -3 -3 -3 -4 -4 -5 -5 -4 -4 -5 -5 -4 -5 -5 -5 -6 -6 -5 -5 -4 -3 -2 -2 -1 -0 -1 0 1 2 3 4 4 5 6 8 10 11 12 13 13 14 14 14 14 14
-2 -3 -3 -3 -4 -4 -5 -5 -5 -5 -6 -6 -6 -6 -5 -6 -7 -7 -7 -6 -5 -5 -4 -4 -4 -3 -2 -2 -1 -0 1 2 2 3 4 3 5 6 8 12 12 13 14 15 15 14 14
-3 -3 -4 -4 -5 -5 -6 -6 -7 -7 -7 -7 -7 -7 -7 -7 -6 -7 -7 -7 -6 -6 -5 -5 -4 -4 -4 -3 -3 -2 -1 -0 1 2 2 3 3 5 6 8 10 10 12 15 14 15 15
-3 -3 -4 -4 -5 -6 -6 -7 -7 -7 -7 -7 -7 -8 -8 -7 -7 -7 -7 -7 -7 -6 -7 -5 -5 -5 -5 -4 -4 -4 -3 -1 -1 1 1 2 2 3 5 7 9 10 12 13 14 15 15
-3 -3 -4 -5 -5 -6 -6 -6 -7 -7 -7 -7 -8 -8 -8 -8 -8 -8 -7 -7 -7 -8 -6 -6 -6 -4 -4 -5 -4 -3 -4 -3 -2 -1 1 1 2 3 3 7 9 10 12 13 13 14 16
-3 -4 -4 -5 -6 -6 -6 -6 -7 -7 -7 -7 -8 -8 -8 -8 -8 -8 -8 -7 -7 -7 -7 -6 -6 -5 -4 -4 -3 -3 -3 -2 -1 -1 -0 1 1 2 1 6 6 12 13 13 14 14 16
-4 -4 -4 -5 -5 -6 -6 -7 -7 -7 -8 -7 -8 -8 -8 -8 -8 -7 -7 -7 -7 -7 -7 -6 -5 -6 -5 -4 -4 -4 -2 -0 -0 0 0 1 2 2 2 5 8 12 13 14 14 14 15
-4 -4 -5 -5 -5 -5 -6 -6 -7 -7 -8 -8 -8 -8 -8 -8 -8 -8 -7 -7 -7 -7 -6 -6 -6 -6 -6 -6 -5 -5 -5 -2 -0 0 2 1 2 3 3 4 5 11 13 15 15 15 16
-4 -4 -4 -5 -5 -5 -6 -6 -6 -7 -7 -8 -8 -8 -8 -8 -7 -7 -7 -8 -7 -7 -6 -5 -6 -5 -6 -6 -6 -6 -5 -4 -3 -0 1 -1 -0 -1 2 3 5 9 12 12 12 15 16
-4 -4 -4 -5 -5 -5 -6 -6 -6 -7 -7 -8 -8 -8 -9 -8 -6 -7 -7 -7 -7 -7 -7 -7 -7 -6 -7 -7 -6 -5 -5 -4 -3 -1 1 -0 -0 -0 1 3 4 8 10 12 13 14 16
-4 -4 -4 -4 -5 -5 -5 -5 -6 -6 -7 -7 -8 -8 -8 -8 -6 -7 -6 -7 -6 -6 -7 -7 -7 -7 -6 -6 -6 -5 -5 -4 -3 -3 0 -1 2 2 2 3 7 7 7 9 12 12 15
Height
3174 3170 3167 3163 3160 3157 3154 3151 3148 3146 3143 3140 3138 3136 3133 3131 3129 3128 3125 3123 3121 3120 3119 3120 3120 3120 3121 3122 3124 3123 3123 3123 3124 3127 3131 3136 3140 3144 3147 3151 3152 3152 3154 3155 3156 3158 3161
3172 3168 3164 3161 3157 3154 3152 3149 3146 3143 3140 3137 3135 3132 3130 3128 3126 3124 3122 3120 3118 3116 3115 3114 3114 3114 3116 3118 3119 3119 3121 3121 3123 3125 3129 3133 3137 3143 3145 3147 3149 3150 3152 3152 3153 3155 3158
3169 3165 3161 3157 3154 3151 3148 3145 3142 3139 3137 3134 3132 3129 3126 3124 3122 3120 3118 3116 3114 3113 3111 3110 3109 3108 3109 3115 3115 3115 3117 3119 3121 3124 3127 3130 3135 3138 3142 3144 3146 3148 3149 3149 3150 3150 3151
3165 3161 3157 3154 3150 3147 3144 3141 3137 3134 3132 3129 3127 3125 3122 3119 3117 3116 3114 3111 3109 3108 3107 3106 3105 3104 3102 3107 3107 3109 3113 3115 3117 3119 3123 3129 3133 3136 3136 3140 3142 3143 3145 3145 3147 3148 3149
3160 3156 3152 3149 3146 3142 3138 3136 3133 3129 3127 3124 3121 3118 3115 3113 3111 3110 3108 3106 3104 3103 3102 3101 3101 3100 3099 3100 3102 3105 3108 3112 3115 3117 3120 3124 3125 3128 3134 3135 3137 3138 3139 3141 3142 3145 3143
3155 3151 3147 3143 3140 3136 3133 3129 3126 3123 3120 3118 3115 3113 3109 3106 3104 3103 3101 3099 3096 3096 3096 3096 3095 3099 3097 3096 3095 3098 3103 3107 3110 3114 3115 3116 3119 3120 3123 3126 3126 3133 3136 3138 3140 3144 3141
3152 3148 3143 3139 3136 3132 3129 3125 3122 3118 3115 3111 3108 3106 3104 3100 3098 3095 3094 3092 3093 3090 3088 3090 3089 3090 3092 3092 3093 3094 3098 3101 3105 3108 3108 3111 3112 3107 3115 3122 3127 3131 3133 3134 3136 3141 3142
3149 3145 3141 3137 3133 3129 3125 3121 3117 3114 3110 3107 3103 3100 3098 3094 3092 3089 3086 3085 3083 3084 3079 3082 3082 3079 3086 3087 3087 3089 3091 3095 3096 3097 3104 3107 3099 3108 3116 3120 3123 3126 3128 3129 3132 3137 3140
3147 3142 3138 3134 3129 3125 3121 3117 3113 3109 3105 3102 3098 3095 3093 3091 3087 3084 3082 3080 3077 3076 3071 3067 3073 3073 3074 3075 3078 3082 3085 3087 3090 3094 3095 3095 3100 3107 3111 3115 3118 3120 3122 3124 3129 3133 3136
3144 3139 3135 3130 3124 3120 3115 3111 3107 3103 3099 3095 3092 3089 3086 3087 3086 3080 3079 3076 3074 3074 3069 3061 3061 3059 3060 3062 3063 3078 3078 3084 3086 3088 3094 3095 3099 3101 3105 3107 3113 3113 3119 3123 3126 3129 3130
3138 3133 3128 3123 3117 3112 3107 3103 3098 3094 3089 3087 3084 3082 3079 3077 3077 3076 3076 3072 3073 3075 3072 3059 3055 3054 3055 3058 3059 3064 3072 3075 3077 3081 3088 3085 3089 3095 3096 3098 3108 3109 3119 3122 3124 3125 3127
3134 3128 3122 3116 3111 3105 3100 3095 3090 3085 3079 3076 3075 3073 3069 3069 3070 3065 3069 3069 3071 3076 3061 3053 3049 3049 3050 3053 3055 3057 3062 3069 3076 3081 3083 3084 3088 3091 3092 3099 3105 3111 3116 3119 3120 3121 3118
3129 3122 3116 3110 3104 3098 3092 3086 3081 3077 3071 3065 3065 3063 3063 3057 3058 3060 3064 3065 3070 3062 3051 3048 3045 3046 3046 3049 3051 3053 3054 3057 3062 3072 3072 3080 3082 3087 3090 3095 3101 3105 3112 3116 3116 3113 3103
3123 3117 3110 3104 3098 3092 3086 3080 3074 3070 3064 3057 3054 3054 3056 3042 3046 3050 3057 3059 3055 3043 3044 3041 3041 3043 3043 3043 3045 3049 3051 3052 3058 3063 3066 3072 3076 3077 3082 3085 3091 3095 3100 3100 3110 3107 3100
3116 3110 3104 3097 3092 3086 3080 3074 3067 3064 3058 3051 3047 3047 3045 3034 3036 3040 3046 3043 3037 3038 3038 3036 3038 3038 3038 3038 3039 3040 3044 3051 3053 3058 3063 3065 3066 3069 3073 3079 3086 3090 3090 3095 3099 3098 3099
3111 3104 3098 3092 3086 3080 3073 3066 3060 3056 3050 3043 3037 3038 3034 3028 3027 3030 3032 3030 3032 3034 3034 3036 3036 3034 3032 3033 3034 3036 3040 3045 3050 3055 3060 3059 3060 3062 3068 3075 3079 3080 3088 3091 3091 3095 3097
3105 3098 3091 3085 3080 3074 3068 3061 3054 3049 3044 3039 3035 3032 3026 3025 3024 3025 3025 3025 3025 3030 3032 3032 3031 3029 3029 3030 3031 3033 3035 3038 3038 3043 3047 3052 3054 3056 3062 3060 3064 3071 3073 3077 3082 3082 3081
3100 3093 3087 3081 3075 3068 3062 3055 3049 3045 3041 3036 3033 3030 3025 3023 3024 3022 3019 3019 3021 3022 3023 3023 3025 3025 3026 3027 3028 3031 3031 3033 3032 3034 3038 3043 3042 3044 3048 3054 3057 3060 3064 3070 3071 3068 3067
3095 3089 3083 3076 3070 3063 3057 3051 3046 3041 3037 3034 3031 3027 3024 3021 3020 3019 3019 3018 3017 3016 3019 3019 3022 3020 3020 3024 3028 3025 3027 3028 3029 3031 3033 3034 3036 3038 3041 3047 3050 3049 3054 3060 3060 3065 3057
3091 3085 3078 3071 3065 3059 3053 3048 3043 3038 3034 3031 3028 3025 3022 3019 3019 3019 3016 3016 3014 3013 3015 3015 3016 3017 3017 3019 3022 3022 3023 3023 3024 3028 3030 3030 3030 3033 3033 3038 3042 3041 3043 3046 3048 3048 3050
3087 3080 3073 3066 3060 3054 3049 3044 3039 3034 3032 3030 3026 3023 3021 3019 3018 3017 3016 3014 3013 3012 3011 3011 3014 3013 3014 3015 3016 3019 3018 3019 3022 3024 3026 3028 3025 3027 3027 3028 3028 3030 3034 3037 3031 3037 3040
3083 3077 3070 3064 3058 3052 3047 3041 3037 3031 3029 3027 3024 3021 3018 3017 3016 3014 3014 3013 3012 3011 3010 3010 3009 3009 3010 3012 3013 3012 3014 3016 3017 3021 3022 3023 3021 3020 3016 3023 3026 3023 3021 3017 3021 3029 3035
3082 3074 3067 3061 3054 3048 3043 3039 3034 3030 3027 3024 3022 3020 3016 3014 3013 3012 3011 3011 3009 3008 3008 3008 3007 3005 3006 3008 3008 3008 3008 3010 3012 3014 3019 3021 3021 3020 3012 3020 3019 3014 2989 3012 3017 3022 3026
3079 3071 3064 3058 3052 3047 3042 3037 3033 3028 3025 3022 3020 3017 3014 3011 3010 3010 3008 3007 3006 3006 3003 3002 3003 3003 3003 3001 3001 3002 3001 3001 3004 3006 3011 3013 3018 3020 3015 3016 3014 2983 3002 3007 3012 3016 3018
3076 3070 3063 3056 3050 3045 3039 3034 3030 3026 3021 3019 3016 3014 3011 3005 3005 3004 3003 3002 3001 3000 2997 2997 2999 2999 2997 2997 2996 2995 2995 2994 2994 2996 2998 3003 3011 3014 3015 3011 2996 2992 3001 3003 3004 3008 3015
3076 3068 3062 3056 3050 3043 3037 3032 3027 3023 3019 3016 3013 3010 3007 3003 2999 3000 2999 2998 2996 2993 2992 2992 2992 2994 2993 2991 2991 2990 2990 2988 2988 2985 2986 2992 2999 3005 3008 3008 2998 2989 2992 2992 2998 2994 3003
3074 3067 3061 3055 3049 3042 3036 3031 3025 3020 3015 3011 3009 3006 3002 2997 2993 2995 2994 2992 2991 2990 2986 2986 2986 2986 2986 2984 2984 2984 2983 2985 2981 2980 2983 2982 2988 2992 2999 3001 2990 2984 2982 2984 2988 2983 2997
3074 3066 3060 3053 3046 3040 3034 3028 3022 3017 3013 3009 3006 3001 2999 2993 2988 2988 2988 2986 2986 2986 2983 2983 2983 2981 2981 2980 2979 2977 2974 2975 2974 2970 2972 2974 2976 2987 2992 2994 2991 2983 2982 2981 2982 2984 2988
3072 3065 3058 3050 3043 3037 3032 3025 3019 3014 3010 3005 3002 2998 2994 2989 2985 2983 2981 2979 2977 2978 2977 2978 2979 2980 2979 2978 2976 2971 2967 2968 2968 2963 2963 2965 2964 2967 2979 2980 2984 2982 2979 2977 2978 2981 2984
Wind_Speed
19 19 19 20 21 21 22 22 22 22 22 21 21 20 20 20 20 19 19 19 20 21 22 24 24 25 22 18 2 12 9 8 13 26 33 38 34 29 28 24 22 24 17 16 12 11 14
20 20 21 21 21 21 21 21 22 22 23 23 23 22 22 21 21 20 20 20 20 21 21 22 23 26 26 15 12 17 11 13 10 21 28 33 33 31 29 28 27 24 18 15 17 19 21
25 23 23 22 22 22 22 22 22 22 22 23 23 23 23 23 22 20 20 21 22 20 21 21 22 23 22 6 12 14 15 17 20 18 27 33 32 33 34 31 29 28 27 27 24 17 17
28 26 26 25 25 24 23 23 24 24 24 24 24 24 25 25 25 23 22 24 24 22 22 21 22 23 18 10 17 20 17 18 19 23 26 28 28 34 36 34 29 26 28 28 22 14 13
30 29 28 27 26 25 25 25 25 25 26 26 26 26 27 26 28 27 25 26 26 25 25 24 23 23 19 13 17 21 21 18 16 19 25 26 27 31 36 35 31 31 29 28 25 14 15
30 30 28 27 27 26 25 24 25 26 26 26 25 25 27 28 29 28 28 28 29 28 28 27 27 22 15 15 14 19 19 20 22 24 24 27 26 30 37 36 32 31 28 31 27 9 14
25 24 24 23 23 24 23 23 22 23 25 26 26 25 25 26 26 28 29 30 30 31 32 27 28 26 17 15 16 18 19 25 25 29 32 31 30 40 40 38 37 35 23 33 25 13 4
22 22 22 23 24 25 25 25 25 25 24 25 25 24 24 25 24 24 27 29 31 31 35 29 28 30 20 20 21 20 24 34 35 36 35 30 42 37 31 34 33 34 32 34 31 23 17
25 26 27 28 29 30 31 31 32 32 31 30 29 28 24 22 22 22 21 24 27 27 35 38 29 28 27 34 32 28 29 35 37 35 38 42 24 34 33 34 32 36 36 39 34 16 14
30 31 32 34 35 36 37 37 37 38 37 36 35 34 30 23 22 21 20 21 21 22 23 34 22 13 20 31 42 33 34 31 36 37 34 35 35 22 37 38 36 37 41 38 34 24 14
35 37 38 40 42 43 44 43 43 43 43 41 40 38 35 32 27 22 19 20 16 14 7 8 10 14 11 13 22 35 40 37 37 34 38 29 35 35 30 46 39 41 38 36 31 24 25
39 40 41 42 42 42 43 44 43 43 44 43 41 38 38 35 29 30 17 16 15 8 10 5 8 10 13 11 16 14 45 42 38 32 29 31 19 26 35 26 31 36 31 32 31 28 18
40 41 41 41 40 40 39 40 41 42 44 46 42 39 34 35 33 30 18 15 10 12 6 8 11 15 16 13 20 20 43 52 45 40 42 35 35 24 19 34 25 27 30 11 8 10 11
39 39 39 38 37 36 38 41 43 42 42 44 44 40 29 38 32 25 18 18 18 8 22 13 13 9 10 15 18 25 36 54 49 41 26 34 20 40 33 33 32 40 37 14 7 4 8
39 38 37 36 35 36 39 41 42 41 41 43 42 36 23 31 26 20 21 30 16 21 15 17 22 17 15 15 14 19 25 49 49 50 31 24 32 21 41 37 37 31 42 41 28 20 5
38 37 36 35 36 38 40 40 41 39 39 40 40 35 16 18 20 18 25 36 26 15 15 14 11 8 10 15 7 9 18 10 37 37 51 32 15 23 27 33 39 40 36 26 28 11 12
37 38 37 37 38 37 37 37 37 36 36 35 35 30 14 17 17 17 21 28 32 18 14 13 14 13 12 14 7 8 11 6 13 29 35 51 39 32 24 38 43 50 43 31 35 31 10
38 37 36 35 35 35 36 35 33 34 32 30 29 23 18 16 10 8 10 16 19 27 28 22 23 24 21 21 17 9 10 8 14 9 14 24 22 42 40 28 29 42 51 43 24 25 36
38 38 37 37 37 37 35 32 30 32 32 29 25 17 17 15 10 10 8 9 7 4 18 15 11 15 19 13 9 8 14 22 21 10 3 8 13 16 19 40 37 30 43 50 54 41 43
38 38 37 36 35 34 32 29 30 31 27 23 22 18 17 10 7 20 22 12 14 14 9 8 9 12 15 14 11 10 11 12 9 9 10 13 13 14 15 20 17 33 41 48 54 40 41
37 38 39 39 36 33 29 28 26 26 21 20 20 20 14 16 15 15 16 16 14 11 5 6 5 6 10 11 15 17 17 25 32 29 24 21 19 21 28 29 37 35 28 49 52 53 42
36 37 37 35 34 31 29 26 23 24 20 18 18 20 19 18 15 18 15 7 9 13 11 6 9 8 3 12 12 16 18 22 25 22 19 22 18 22 31 24 28 36 45 44 49 55 53
35 35 33 32 31 27 26 25 23 22 20 20 17 16 17 20 21 20 15 14 13 9 8 8 5 7 9 12 16 20 18 19 25 29 27 22 22 22 17 16 20 31 64 51 42 48 46
32 31 31 29 29 27 26 24 21 20 20 19 18 16 19 23 21 21 20 17 14 13 18 16 13 9 14 19 20 20 26 28 23 26 30 29 24 21 14 13 8 40 40 46 50 43 45
31 32 32 30 28 27 25 24 21 20 20 17 15 14 19 26 23 22 17 19 15 16 19 19 12 16 17 19 22 20 23 30 28 25 28 30 24 21 6 9 25 32 19 30 42 49 42
32 32 32 31 29 28 26 25 22 20 19 17 14 16 19 24 28 22 22 17 18 17 12 12 13 12 20 20 17 8 8 8 12 9 19 30 31 29 14 6 6 8 19 29 30 45 46
33 34 34 32 31 30 29 27 25 22 18 18 16 18 19 25 28 22 22 27 25 18 20 19 16 14 15 15 14 17 19 18 11 18 12 34 39 34 31 12 19 18 14 16 25 43 34
33 33 33 34 33 31 30 28 27 24 21 17 13 17 18 25 27 17 11 16 18 22 23 19 21 10 9 11 11 15 16 17 21 29 25 26 28 26 28 19 16 12 14 12 13 17 33
32 33 32 32 32 31 32 32 27 25 22 20 15 17 19 25 26 25 25 18 21 19 21 23 22 20 14 9 8 11 14 10 16 24 23 36 35 30 26 32 25 14 9 9 22 23 28
Wind_Direction
345 343 341 338 335 333 331 329 328 325 322 318 315 312 309 306 304 303 302 299 298 293 285 278 274 273 272 274 189 235 212 211 207 202 203 208 210 222 230 234 243 246 243 269 284 278 268
335 331 329 329 328 327 325 325 324 322 320 318 315 313 310 306 302 299 297 295 293 293 291 285 279 274 272 268 243 238 207 215 200 200 200 208 211 219 228 233 243 250 266 264 273 285 236
331 327 323 320 318 320 321 319 316 315 315 312 308 306 306 306 303 301 298 293 289 290 288 286 285 280 282 240 247 220 219 211 212 214 210 208 213 216 222 230 241 246 253 252 261 267 256
327 325 324 320 314 310 308 308 309 308 307 306 307 304 297 296 297 298 299 293 292 290 287 286 284 284 280 262 241 231 226 215 221 213 211 211 216 220 222 229 232 237 248 256 240 251 237
328 324 319 317 314 310 306 302 302 303 303 302 301 300 298 294 290 290 291 293 293 290 287 286 284 285 293 262 230 224 232 220 220 208 200 196 204 217 217 225 235 238 243 246 254 257 248
328 327 324 319 317 315 314 309 304 300 299 297 297 296 294 293 290 291 288 289 288 288 285 285 283 280 273 246 223 218 218 193 203 190 170 187 195 209 212 215 225 227 237 244 251 273 228
332 332 332 331 328 326 324 322 319 315 312 308 303 298 297 295 292 288 285 285 287 287 284 280 276 270 267 270 237 226 208 193 191 197 188 189 202 208 210 213 223 232 236 243 248 237 221
337 337 334 331 329 326 324 322 321 319 317 315 313 312 312 308 298 292 284 282 281 282 280 272 276 275 261 233 226 212 198 197 200 203 193 200 216 209 210 214 221 228 235 237 247 243 253
335 333 331 328 325 323 320 318 316 314 312 311 310 308 309 315 310 298 289 284 283 288 291 282 279 267 261 237 236 217 210 202 207 204 202 206 219 207 211 211 221 224 229 232 238 230 241
332 330 327 324 322 320 317 315 312 310 307 305 304 303 301 300 307 299 288 277 278 286 297 289 286 266 240 236 231 214 216 207 206 214 211 222 210 211 213 219 216 228 222 232 247 262 279
331 328 326 324 322 320 317 315 312 310 307 305 303 301 295 292 294 289 283 271 265 285 309 272 243 241 232 232 228 216 209 208 205 209 210 215 217 210 216 222 216 229 225 231 246 266 273
330 327 326 324 323 321 319 317 316 315 311 307 306 303 300 291 285 282 278 271 244 239 247 229 228 234 241 235 217 202 201 208 213 216 226 229 226 220 222 217 222 224 230 236 247 258 251
329 327 326 325 323 322 321 319 318 318 314 311 310 305 304 295 277 274 273 253 211 222 219 235 210 223 233 217 210 195 198 202 202 207 221 227 229 222 214 222 220 221 220 236 256 230 237
330 329 327 325 324 324 323 321 319 319 317 315 316 315 309 286 281 272 253 220 218 243 226 235 215 204 237 224 215 198 207 207 207 207 216 210 220 227 221 224 214 223 215 197 198 207 246
332 330 328 326 324 324 323 320 319 320 319 318 321 326 315 277 279 265 227 211 228 244 248 253 250 260 226 208 203 212 202 212 218 213 212 209 223 230 226 217 214 216 221 227 242 263 294
332 332 330 328 326 325 324 322 321 323 324 325 329 339 314 258 253 236 216 222 225 221 234 249 266 249 227 205 230 205 180 214 216 224 222 225 224 237 239 222 221 227 225 212 220 218 241
336 334 333 330 327 325 323 323 324 329 330 331 335 343 310 268 247 231 236 233 237 204 253 269 247 264 255 281 272 275 197 198 182 206 220 227 235 243 230 219 218 217 225 225 232 227 226
335 333 331 329 328 328 328 328 327 330 332 333 336 338 330 334 274 223 245 251 259 250 233 260 265 263 277 274 285 285 233 261 236 244 212 214 231 240 232 230 231 223 221 223 220 217 228
337 336 334 333 332 330 329 326 326 328 329 332 333 332 328 327 309 274 301 259 262 252 253 263 240 250 252 261 270 269 246 249 262 270 246 237 215 247 239 237 231 224 222 225 232 236 239
339 337 335 333 332 330 328 324 323 323 326 329 334 333 330 348 3 337 335 307 284 255 221 254 268 280 275 275 260 260 239 251 243 238 229 289 262 248 256 235 230 229 224 223 228 228 236
343 342 340 338 336 334 332 328 323 324 326 329 334 330 319 306 321 329 335 328 314 334 279 216 231 271 285 287 285 282 273 270 263 274 278 289 291 280 266 260 247 253 238 232 231 231 228
345 344 340 337 336 334 334 333 327 321 325 326 326 331 317 308 319 323 336 327 316 285 332 256 232 246 248 284 279 280 286 287 284 273 277 271 289 303 288 277 265 266 248 236 243 237 239
346 346 344 342 341 340 341 336 331 323 323 319 318 316 312 306 315 320 323 321 303 280 273 278 282 248 280 275 264 270 274 272 274 279 278 285 286 291 301 282 267 260 238 241 245 242 235
347 345 346 346 345 342 340 337 334 326 321 317 314 303 296 297 305 307 305 305 297 281 268 259 263 288 292 286 282 277 274 277 274 271 266 263 269 273 293 289 230 246 252 246 245 240 238
349 350 352 352 346 342 338 334 330 324 319 320 316 301 292 293 299 302 315 311 297 285 276 269 257 262 281 285 290 285 274 271 274 273 255 244 236 237 241 265 269 250 258 241 233 239 248
351 351 352 352 351 349 343 337 332 322 313 313 308 295 289 289 293 303 301 309 307 291 280 258 249 251 279 274 282 255 242 277 250 261 234 225 218 227 216 236 250 218 222 214 225 235 234
357 355 351 347 346 345 345 344 337 336 322 312 305 294 289 287 289 291 291 293 288 290 281 281 292 283 275 273 261 250 246 237 250 253 263 213 218 211 218 233 270 259 237 218 202 234 233
348 348 349 350 350 347 341 336 336 331 325 319 320 300 293 289 299 294 302 292 281 282 282 287 299 298 272 271 254 257 236 235 245 247 243 201 177 205 218 216 252 257 262 220 207 209 215
351 352 352 349 343 341 345 344 337 333 326 313 312 303 301 295 301 298 293 286 271 269 266 268 265 264 260 268 260 303 304 275 249 262 247 238 211 190 200 215 227 283 306 239 175 172 201